Home > Weather > Kopervik > Past weeks

Flag for Norway Past Weather in Kopervik, Norway — Yesterday and Last 2 Weeks

Now
55 °F

Drizzle. Partly sunny.


Feels Like: 52 °F
Forecast: 53 / 56 °F
Wind: 13 mph from Southeast

Location: Karmoy

Current Time: Jul 1, 2016 at 11:59:34 AM

Latest Report: Jul 1, 2016 at 11:20 AM


Visibility: N/A

Pressure: 29.53 "Hg

Humidity: 82%

Dew Point: 50 °F

Location of KopervikLocation

Past Weather in Kopervik — Graph

°F

Kopervik Temperature Yesterday

Maximum temperature yesterday: 61 °F (at 3:20 PM)
Minimum temperature yesterday: 54 °F (at 4:50 AM)
Average temperature yesterday: 56 °F

High & Low Weather Summary for the Past Weeks

 TemperatureHumidityPressure
High66 °F (Jun 23, 11:20 AM)100% (Jun 17, 12:50 AM)30.12 "Hg (Jun 17, 12:50 AM)
Low43 °F (Jun 20, 12:50 AM)59% (Jun 19, 2:20 PM)29.39 "Hg (Jun 30, 7:50 AM)
Average56 °F86%29.82 "Hg
* Reported Jun 16 10:20 AM — Jul 1 10:50 AM, Kopervik, Weather by CustomWeather, © 2016

Note: Actual official high and low records may vary slightly from our data, if they occured in-between our weather recording intervals... More about our weather records

Advertising

Kopervik Weather History for the Previous 24 Hours

Scroll right to see more
 ConditionsComfort  
Time TempWeatherWind HumidityBarometerVisibility
10:50 AM
Fri, Jul 1
57 °FDrizzle. Partly sunny.14 mph77%29.56 "HgN/A
10:20 AM55 °FScattered showers. Partly sunny.12 mph82%29.56 "HgN/A
9:50 AM55 °FDrizzle. Broken clouds.12 mph82%29.56 "HgN/A
9:20 AM55 °FDrizzle. Broken clouds.13 mph82%29.56 "HgN/A
8:50 AM55 °FScattered clouds.12 mph77%29.59 "HgN/A
8:20 AM55 °FScattered clouds.14 mph77%29.59 "HgN/A
7:50 AM55 °FPartly sunny.14 mph82%29.59 "HgN/A
7:20 AM55 °FPartly sunny.14 mph82%29.59 "HgN/A
6:50 AM55 °FScattered clouds.13 mph82%29.62 "HgN/A
6:20 AM54 °FPartly sunny.15 mph88%29.62 "HgN/A
5:50 AM54 °FPartly sunny.13 mph88%29.62 "HgN/A
5:20 AM54 °FMostly cloudy.14 mph94%29.62 "HgN/A
4:50 AM54 °FPassing clouds.13 mph94%29.65 "HgN/A
4:20 AM54 °FPartly cloudy.13 mph94%29.65 "HgN/A
3:50 AM54 °FPassing clouds.9 mph94%29.65 "HgN/A
3:20 AM54 °FPartly cloudy.12 mph94%29.65 "HgN/A
2:50 AM54 °FPartly cloudy.13 mph94%29.65 "HgN/A
2:20 AM54 °FDrizzle. Overcast.13 mph94%29.65 "HgN/A
1:50 AM55 °FLight rain. Overcast.13 mph88%29.68 "HgN/A
1:20 AM55 °FOvercast.13 mph88%29.68 "HgN/A
12:50 AM55 °FOvercast.13 mph88%29.68 "HgN/A
12:20 AM55 °FPartly cloudy.13 mph88%29.68 "HgN/A
11:50 PM
Thu, Jun 30
55 °FOvercast.12 mph82%29.68 "HgN/A
11:20 PM55 °FOvercast.10 mph82%29.68 "HgN/A
10:50 PM55 °FPartly sunny.10 mph88%29.68 "HgN/A
10:20 PM55 °FScattered clouds.10 mph88%29.68 "HgN/A
9:50 PM55 °FScattered clouds.13 mph88%29.68 "HgN/A
9:20 PM57 °FScattered clouds.14 mph82%29.68 "HgN/A
8:50 PM57 °FScattered clouds.13 mph82%29.68 "HgN/A
8:20 PM57 °FScattered clouds.9 mph82%29.68 "HgN/A
7:50 PM57 °FScattered clouds.7 mph77%29.65 "HgN/A
7:20 PM54 °FRain. Broken clouds.9 mph88%29.65 "Hg6 mi
6:50 PM57 °FScattered clouds.13 mph88%29.65 "HgN/A
6:20 PM59 °FBroken clouds.14 mph82%29.65 "HgN/A
5:50 PM59 °FPartly sunny.14 mph82%29.65 "HgN/A
5:20 PM59 °FBroken clouds.15 mph82%29.65 "HgN/A
4:50 PM59 °FBroken clouds.15 mph77%29.65 "HgN/A
4:20 PM59 °FBroken clouds.17 mph77%29.62 "HgN/A
3:50 PM59 °FScattered clouds.18 mph77%29.62 "HgN/A
3:20 PM61 °FScattered clouds.20 mph72%29.62 "HgN/A
2:50 PM59 °FScattered clouds.18 mph77%29.59 "HgN/A
2:20 PM59 °FScattered clouds.23 mph77%29.59 "HgN/A
1:50 PM59 °FScattered clouds.25 mph77%29.59 "HgN/A
1:20 PM57 °FScattered showers. Partly sunny.29 mph82%29.56 "HgN/A
12:50 PM55 °FScattered showers. Broken clouds.25 mph88%29.53 "HgN/A
12:20 PM55 °FScattered showers. Broken clouds.26 mph88%29.53 "HgN/A
11:50 AM55 °FDrizzle. Broken clouds.31 mph82%29.50 "HgN/A
11:20 AM55 °FDrizzle. Broken clouds.37 mph88%29.45 "HgN/A
Weather by CustomWeather, © 2016

See weather overviewHow to use our weather pages